Regional Weather Roundup
Issued by NWS Upton, NY

Current Version | Previous Version | Graphics & Text | Print | Product List | Glossary Off
Versions: 1 2 3 4 5 6 7 8 9 10 11 12 13 14 15 16 17 18 19 20 21 22 23 24 25 26 27

000
ASUS41 KOKX 291508
RWROKX

REGIONAL WEATHER ROUNDUP
NATIONAL WEATHER SERVICE NEW YORK NY
1100 AM EDT WED MAR 29 2017

NOTE: "FAIR" INDICATES FEW OR NO CLOUDS BELOW 12,000 FEET WITH NO
SIGNIFICANT WEATHER AND/OR OBSTRUCTIONS TO VISIBILITY.

NYZ071-072-176-178-NJZ106-104-291600-
NEW YORK CITY METRO AREA

CITY           SKY/WX    TMP DP  RH WIND       PRES   REMARKS
Central Park   CLOUDY    48  37  65 N8        30.11R
Wall St Helipt CLOUDY    50  37  62 N8        30.09S
LaGuardia APRT PTSUNNY   49  36  61 NW9       30.08R
Kennedy INTL   PTSUNNY   50  37  61 N23G30    30.08R
Breezy Point     N/A     45 N/A N/A N12G17      N/A
Newark/Liberty MOSUNNY   51  37  58 NW12      30.08S
Teterboro      MOSUNNY   49  37  63 N14G21    30.08R
$$

NYZ177-179-078>081-291600-
LONG ISLAND NEW YORK

CITY           SKY/WX    TMP DP  RH WIND       PRES   REMARKS
Jones Beach      N/A     46 N/A N/A N18         N/A
Matinecock PT  NOT AVBL
Farmingdale    PTSUNNY   48  36  63 N18G26    30.07R
MacArthur/ISP  MOSUNNY   51  37  58 NW16G23   30.04R
Shirley        SUNNY     48  36  63 N18G28    30.05R
Westhampton    CLOUDY    49  37  63 N18       30.04R
East Hampton   CLOUDY    46  35  67 N14G21    30.03R
Montauk          N/A     44  38  79 N9        30.03
$$

NYZ052-065-067-291600-
HUDSON VALLEY

CITY           SKY/WX    TMP DP  RH WIND       PRES   REMARKS
White Plains   PTSUNNY   49  35  58 N18G25    30.06R
Newburgh       MOSUNNY   48  36  61 N17       30.10R
Montgomery     MOSUNNY   50  34  54 N5        30.08S
Poughkeepsie   PTSUNNY   48  32  53 N10G20    30.09R
Albany         CLOUDY    40  35  83 N6        30.14R
$$

NJZ001-105-106-008-010-013-015-019>022-104-291600-
NEW JERSEY

CITY           SKY/WX    TMP DP  RH WIND       PRES   REMARKS
Newark/Liberty MOSUNNY   51  37  58 NW12      30.08S
Teterboro      MOSUNNY   49  37  63 N14G21    30.08R
Caldwell       SUNNY     49  33  54 NW8       30.09R
Somerville     SUNNY     51  33  50 N10       30.09R
Linden           N/A     49  35  57 N8        30.09S
Sussex         LGT RAIN  49  33  54 N9        30.11R
Andover          N/A     48  32  53 N8        30.10R
Trenton        SUNNY     50  36  58 NW10G18   30.10R
Millville      CLOUDY    49  40  71 NW13      30.11R
Atlantic City  CLOUDY    48  40  73 N12       30.10R
Wrightstown    MOSUNNY   50  37  62 NW15      30.08R
Toms River     CLOUDY    46  40  79 NW10      30.10R
Belmar         CLOUDY    48  37  65 N13       30.10R
$$

PAZ047>061-062-071-291600-
EASTERN PENNSYLVANIA

CITY           SKY/WX    TMP DP  RH WIND       PRES   REMARKS
Philadelphia   MOSUNNY   51  35  54 NW15      30.12R
Allentown      SUNNY     51  32  48 N13       30.13R
Scranton       MOSUNNY   45  30  55 N16G22    30.16R
$$

CTZ002-004>006-009-010-012-RIZ004-006-007-MAZ004-011-015-291600-
SOUTHERN NEW ENGLAND
 IN CT

CITY           SKY/WX    TMP DP  RH WIND       PRES   REMARKS
Bradley INTL   PTSUNNY   47  33  58 N12       30.06S
Hartford       PTSUNNY   46  33  60 N9        30.06S
Danbury        CLOUDY    43  36  76 N14G22    30.09R
Wtrbury/Oxford MOSUNNY   45  30  57 N12G18    30.06R
Bridgeport     SUNNY     52  34  50 N15       30.05R
Meriden        MOSUNNY   50  34  54 N14G20    30.05S
New Haven      MOSUNNY   50  35  56 N18       30.04S
Chester        NOT AVBL
Groton         CLOUDY    47  36  65 N17       30.01S
Wilimantic     CLOUDY    48  33  56 N12       30.04S

 IN RI

CITY           SKY/WX    TMP DP  RH WIND       PRES   REMARKS
Providence     CLOUDY    43  37  79 N17G24    30.02S
Block Island   CLOUDY    43  38  82 N9        30.02R
Westerly       CLOUDY    45  39  79 N12       30.02R
 IN MA

CITY           SKY/WX    TMP DP  RH WIND       PRES   REMARKS
Boston         CLOUDY    41  38  89 N12       30.04R
Worcester      CLOUDY    41  30  65 N13G20    30.01R
Westfield      CLOUDY    46  33  60 NW13      30.05S
Provincetown   CLOUDY    40  37  89 N17       30.00R WCI  31
Nantucket      CLOUDY    42  38  85 N21G30    29.95R FOG
$$

ANZ330-335-338-340-345-350-353-355-291600-
COASTAL MARINE OBSERVATIONS


STATION/POSITION TIME  SKY/WX   TEMP    WIND        PRES    VSBY  WAVE
                                AIR SEA DIR/SP/G                  HT/PER
                 (UTC)          (F)     (DEG/KT/KT) (MB)    (MI)  (FT/S)
NY HARB ENTRANCE 1350            45 42  340/ 16/ 17 1017.8          3/ 9
20 S FIRE ISLAND 1350            43 42  360/ 16/ 19 1016.6          4/ 9
GREAT SOUTH BAY  NOT AVBL
23 SSW MONTAUK P 1350            41 42              1016.5          3/ 9
15 E BARNEGAT LI 1430               44                N/A           4/10
HUDSON CANYON    1350            44 43  360/ 16/ 17 1015.8          5/ 6
KINGS POINT      1436            44 40              1018.4
EXECUTION ROCKS  NOT AVBL
CENTRAL LI SOUND 1430            43     360/ 14/ 19   N/A           2/ 3
EASTERN LI SOUND NOT AVBL
ROBBINS REEF     1436            46     360/ 13/ 17 1019.0
$$


>>>>>>>>>>>>>>>>>>>>>>>>>>>> KEY <<<<<<<<<<<<<<<<<<<<<<<<<<<
>                                                          <
>     SKY/WX - Sky Condition/Present Weather               <
>     TMP    - Temperature in Fahrenheit                   <
>     DP     - Dew Point in Fahrenheit                     <
>     RH     - Relative Humidity in Percent                <
>     WIND   - Direction (from) and Speed in MPH           <
>     PRES   - Mean Sea Level Pressure (inches of Hg)      <
>     WCI    - Wind Chill Index                            <
>     VSB    - VISIBILITY IN MILES                         <
>     HX     - HEAT INDEX                                  <
>     TC     - TEMPERATURE IN CELSIUS                      <
>     VRB    - VARIABLE WIND DIRECTION                     <
>                                                          <
>>>>>>>>>>>>>>>>>>>>>>>>>>>> KEY <<<<<<<<<<<<<<<<<<<<<<<<<<<




USA.gov is the U.S. government's official web portal to all federal, state and local government web resources and services.